EW1613 Weather Reports


Display with metric or nautical units.
time (UTC)temp
F
wind
direction
speed
MPH
gust
MPH
rain 1hr
in
rain 24hr
in
rain mn
in
humidity
%
barometer
mb
20260901103605 84 114 4.0 10.0 0.00 0.00 0.00 59 1018.6
20260901103058 84 84 6.0 10.0 0.00 0.00 0.00 59 1018.6
20260901102618 85 63 3.0 10.0 0.00 0.00 0.00 59 1018.6
20260901102118 84 90 5.0 12.0 0.00 0.00 0.00 62 1018.7
20260901101551 84 70 4.0 12.0 0.00 0.00 0.00 61 1018.7
20260901101045 84 59 5.0 13.0 0.00 0.00 0.00 60 1018.7
20260901100605 84 71 5.0 13.0 0.00 0.00 0.00 60 1018.8
20260901100105 84 40 3.0 11.0 0.00 0.00 0.00 58 1018.8
20260901095604 83 73 4.0 15.0 0.00 0.00 0.00 58 1018.7
20260901095105 83 92 6.0 15.0 0.00 0.00 0.00 58 1018.8
20260901094626 83 64 6.0 14.0 0.00 0.00 0.00 58 1018.9
20260901094058 83 87 5.0 12.0 0.00 0.00 0.00 57 1019.0
20260901093552 83 85 3.0 12.0 0.00 0.00 0.00 58 1019.0
20260901093053 82 71 6.0 12.0 0.00 0.00 0.00 58 1019.0
20260901092547 82 50 5.0 14.0 0.00 0.00 0.00 59 1019.0
20260901092108 82 40 8.0 14.0 0.00 0.00 0.00 58 1019.0
20260901091549 82 61 6.0 13.0 0.00 0.00 0.00 58 1019.0
20260901091058 82 84 7.0 13.0 0.00 0.00 0.00 56 1019.0
20260901090558 82 93 5.0 13.0 0.00 0.00 0.00 58 1019.0
20260901090050 81 58 6.0 15.0 0.00 0.00 0.00 57 1019.0
20260901085552 81 89 9.0 15.0 0.00 0.00 0.00 57 1019.0
20260901085104 81 53 6.0 12.0 0.00 0.00 0.00 58 1018.9
20260901084603 80 83 5.0 10.0 0.00 0.00 0.00 59 1018.9
20260901084103 80 98 5.0 13.0 0.00 0.00 0.00 58 1018.9
20260901083556 80 74 6.0 13.0 0.00 0.00 0.00 59 1019.0
20260901083057 80 97 6.0 12.0 0.00 0.00 0.00 59 1018.9
20260901082611 79 88 6.0 13.0 0.00 0.00 0.00 60 1018.9
20260901082051 79 42 6.0 13.0 0.00 0.00 0.00 60 1018.7
20260901081545 79 53 4.0 11.0 0.00 0.00 0.00 60 1018.7
20260901081045 79 44 6.0 13.0 0.00 0.00 0.00 59 1018.7
20260901080559 79 59 7.0 13.0 0.00 0.00 0.00 59 1018.6
20260901080059 79 90 7.0 12.0 0.00 0.00 0.00 59 1018.5
20260901075554 79 49 4.0 9.0 0.00 0.00 0.00 61 1018.6
20260901075054 78 52 4.0 9.0 0.00 0.00 0.00 60 1018.5
20260901074547 78 61 5.0 10.0 0.00 0.00 0.00 60 1018.5
20260901074048 78 61 3.0 10.0 0.00 0.00 0.00 63 1018.5
20260901073608 78 62 2.0 8.0 0.00 0.00 0.00 63 1018.4
20260901073129 77 71 2.0 6.0 0.00 0.00 0.00 63 1018.4
20260901072558 77 82 2.0 6.0 0.00 0.00 0.00 66 1018.4
20260901072052 77 16 0.0 2.0 0.00 0.00 0.00 71 1018.3
20260901071552 76 16 0.0 3.0 0.00 0.00 0.00 71 1018.3
20260901071052 76 16 0.0 5.0 0.00 0.00 0.00 72 1018.2
20260901070546 76 28 0.0 5.0 0.00 0.00 0.00 72 1018.2
20260901070047 75 13 2.0 5.0 0.00 0.00 0.00 72 1018.2
20260901065600 75 23 1.0 4.0 0.00 0.00 0.00 72 1018.3
20260901065101 75 14 1.0 4.0 0.00 0.00 0.00 72 1018.3
20260901064555 75 26 1.0 4.0 0.00 0.00 0.00 72 1018.2
20260901064057 75 5 1.0 3.0 0.00 0.00 0.00 72 1018.2
20260901063617 75 360 1.0 4.0 0.00 0.00 0.00 72 1018.1
20260901063049 75 355 1.0 4.0 0.00 0.00 0.00 72 1018.1
20260901062610 75 350 2.0 4.0 0.00 0.00 0.00 71 1018.1
20260901062044 74 5 2.0 4.0 0.00 0.00 0.00 72 1018.0
20260901061605 74 360 2.0 4.0 0.00 0.00 0.00 72 1018.0
20260901061059 73 13 3.0 4.0 0.00 0.00 0.00 73 1018.0
20260901060601 73 34 1.0 4.0 0.00 0.00 0.00 74 1017.9
20260901060114 73 31 1.0 3.0 0.00 0.00 0.00 75 1017.8
20260901055554 72 34 0.0 2.0 0.00 0.00 0.00 75 1017.7
20260901055049 72 34 1.0 2.0 0.00 0.00 0.00 75 1017.7
20260901054550 72 34 1.0 2.0 0.00 0.00 0.00 75 1017.7
20260901054059 72 34 1.0 2.0 0.00 0.00 0.00 75 1017.7
20260901053544 72 34 1.0 2.0 0.00 0.00 0.00 74 1017.7
20260901053054 71 34 0.0 0.0 0.00 0.00 0.00 74 1017.7
20260901052555 71 34 0.0 0.0 0.00 0.00 0.00 74 1017.7
20260901052116 71 34 0.0 0.0 0.00 0.00 0.00 73 1017.6
20260901051548 71 34 0.0 0.0 0.00 0.00 0.00 72 1017.5
20260901051109 71 34 0.0 0.0 0.00 0.00 0.00 73 1017.5
20260901050603 71 34 0.0 0.0 0.00 0.00 0.00 73 1017.4
20260901050104 71 34 0.0 0.0 0.00 0.00 0.00 72 1017.3
20260901045558 71 34 0.0 0.0 0.00 0.00 0.00 72 1017.3
20260901045059 71 34 0.0 0.0 0.00 0.00 0.00 72 1017.3
20260901044553 71 34 0.0 2.0 0.00 0.00 0.00 71 1017.3
20260901044053 71 34 0.0 2.0 0.00 0.00 0.00 71 1017.2
20260901043552 71 34 0.0 0.0 0.00 0.00 0.00 71 1017.2
20260901043045 71 34 0.0 0.0 0.00 0.00 0.00 70 1017.1
20260901042548 71 34 0.0 0.0 0.00 0.00 0.00 70 1017.1
20260901042101 71 34 0.0 0.0 0.00 0.00 0.00 70 1017.1
20260901041622 71 34 0.0 0.0 0.00 0.00 0.00 70 1017.0
20260901041101 71 34 0.0 0.0 0.00 0.00 0.00 70 1016.9
20260901040556 72 34 0.0 0.0 0.00 0.00 0.00 70 1016.9
20260901040050 72 34 0.0 0.0 0.00 0.00 0.00 70 1016.8
20260901035551 72 34 0.0 0.0 0.00 0.00 0.00 70 1016.9
20260901035051 72 34 0.0 0.0 0.00 0.00 0.00 69 1016.8
20260901034544 72 34 0.0 0.0 0.00 0.00 0.00 69 1016.7
20260901034105 72 34 0.0 0.0 0.00 0.00 0.00 68 1016.7
20260901033605 72 34 0.0 0.0 0.00 0.00 0.00 68 1016.6
20260901033059 72 34 0.0 0.0 0.00 0.00 0.00 69 1016.6
20260901032600 72 34 0.0 1.0 0.00 0.00 0.00 68 1016.5
20260901032054 72 34 0.0 3.0 0.00 0.00 0.00 68 1016.5
20260901031548 73 35 1.0 4.0 0.00 0.00 0.00 68 1016.5
20260901031109 73 40 1.0 4.0 0.00 0.00 0.00 67 1016.4
20260901030548 73 53 2.0 4.0 0.00 0.00 0.00 67 1016.5
20260901030048 73 46 2.0 3.0 0.00 0.00 0.00 67 1016.5
20260901025558 73 35 1.0 3.0 0.00 0.00 0.00 67 1016.5
20260901025059 73 31 1.0 3.0 0.00 0.00 0.00 67 1016.6
20260901024548 73 22 0.0 2.0 0.00 0.00 0.00 68 1016.6
20260901024048 73 22 0.0 4.0 0.00 0.00 0.00 68 1016.7
20260901023609 73 22 2.0 4.0 0.00 0.00 0.00 68 1016.7
20260901023044 73 31 1.0 4.0 0.00 0.00 0.00 68 1016.7
20260901022604 73 57 1.0 3.0 0.00 0.00 0.00 68 1016.6
20260901022055 74 57 0.0 2.0 0.00 0.00 0.00 70 1016.6
20260901021555 74 57 0.0 1.0 0.00 0.00 0.00 71 1016.6
20260901021049 74 57 0.0 1.0 0.00 0.00 0.00 70 1016.5
20260901020549 74 57 0.0 1.0 0.00 0.00 0.00 70 1016.5
20260901020050 75 57 0.0 3.0 0.00 0.00 0.00 70 1016.4
20260901015603 75 57 1.0 3.0 0.00 0.00 0.00 69 1016.4
20260901015104 75 57 1.0 3.0 0.00 0.00 0.00 70 1016.4
20260901014558 75 61 1.0 3.0 0.00 0.00 0.00 69 1016.3
20260901014058 75 57 1.0 3.0 0.00 0.00 0.00 70 1016.3
20260901013551 75 55 1.0 4.0 0.00 0.00 0.00 70 1016.3
20260901013050 76 53 1.0 5.0 0.00 0.00 0.00 70 1016.3
20260901012544 76 85 2.0 6.0 0.00 0.00 0.00 71 1016.2
20260901012045 76 67 4.0 6.0 0.00 0.00 0.00 70 1016.2
20260901011605 76 60 2.0 8.0 0.00 0.00 0.00 71 1016.2
20260901011058 76 51 3.0 10.0 0.00 0.00 0.00 72 1016.2
20260901010552 76 47 5.0 10.0 0.00 0.00 0.00 73 1016.2
20260901010053 76 82 5.0 11.0 0.00 0.00 0.00 74 1016.2
20260901005547 76 65 5.0 10.0 0.00 0.00 0.00 76 1016.1
20260901005048 76 71 4.0 10.0 0.00 0.00 0.00 77 1016.0
20260901004609 76 79 4.0 13.0 0.00 0.00 0.00 78 1016.0
20260901004103 76 60 7.0 13.0 0.00 0.00 0.00 79 1016.0
20260901003556 76 71 4.0 13.0 0.00 0.00 0.00 81 1016.0
20260901003057 76 91 6.0 11.0 0.00 0.00 0.00 82 1015.9
20260901002551 75 92 5.0 10.0 0.00 0.00 0.00 83 1015.9
20260901002051 75 53 5.0 9.0 0.00 0.00 0.00 84 1015.9
20260901001545 75 68 3.0 5.0 0.00 0.00 0.00 84 1015.8
20260901001045 75 71 3.0 5.0 0.00 0.00 0.00 84 1015.8
20260901000606 75 52 3.0 5.0 0.00 0.00 0.00 84 1015.8
20260901000105 75 55 3.0 6.0 0.00 0.00 0.00 84 1015.7
20260831235558 75 57 3.0 6.0 0.00 0.00 0.00 85 1015.6
20260831235101 75 50 1.0 6.0 0.00 0.00 0.00 85 1015.6
20260831234553 75 49 3.0 6.0 0.00 0.00 0.00 85 1015.5
20260831234047 74 59 3.0 6.0 0.00 0.00 0.00 85 1015.4
20260831233608 74 73 3.0 5.0 0.00 0.00 0.00 85 1015.4
20260831233107 74 57 2.0 4.0 0.00 0.00 0.00 85 1015.3
20260831232622 74 60 1.0 3.0 0.00 0.00 0.00 85 1015.2
20260831232101 74 51 0.0 3.0 0.00 0.00 0.00 84 1015.2
20260831231556 74 51 1.0 3.0 0.00 0.00 0.00 84 1015.0
20260831231050 74 49 0.0 4.0 0.00 0.00 0.00 84 1015.0
20260831230550 74 50 2.0 4.0 0.00 0.00 0.00 84 1015.0
20260831230044 74 57 2.0 4.0 0.00 0.00 0.00 83 1014.9
20260831225545 75 17 1.0 5.0 0.00 0.00 0.00 83 1014.8
20260831225106 75 15 1.0 5.0 0.00 0.00 0.00 83 1014.8
20260831224559 75 12 1.0 4.0 0.00 0.00 0.00 82 1014.8
20260831224059 75 355 1.0 3.0 0.00 0.00 0.00 82 1014.7
20260831223553 75 355 1.0 3.0 0.00 0.00 0.00 81 1014.6
20260831223054 75 355 0.0 4.0 0.00 0.00 0.00 81 1014.5
20260831222549 75 355 1.0 4.0 0.00 0.00 0.00 81 1014.5
20260831222110 76 17 0.0 3.0 0.00 0.00 0.00 80 1014.4
20260831221609 76 17 0.0 4.0 0.00 0.00 0.00 80 1014.4
20260831221103 76 23 2.0 4.0 0.00 0.00 0.00 79 1014.5
20260831220603 76 32 0.0 2.0 0.00 0.00 0.00 78 1014.3
20260831220117 76 32 0.0 2.0 0.00 0.00 0.00 78 1014.3
20260831215556 77 32 1.0 4.0 0.00 0.00 0.00 78 1014.3
20260831215057 77 34 1.0 4.0 0.00 0.00 0.00 77 1014.3
20260831214551 78 28 2.0 3.0 0.00 0.00 0.00 76 1014.3
20260831214112 78 49 1.0 2.0 0.00 0.00 0.00 75 1014.2
20260831213612 78 50 0.0 3.0 0.00 0.00 0.00 74 1014.1
20260831213044 79 50 1.0 3.0 0.00 0.00 0.00 74 1014.1
20260831212605 79 142 0.0 4.0 0.00 0.00 0.00 73 1014.0
20260831212105 79 142 1.0 4.0 0.00 0.00 0.00 73 1013.8
20260831211625 79 142 1.0 3.0 0.00 0.00 0.00 73 1013.8
20260831211052 79 137 0.0 3.0 0.00 0.00 0.00 72 1013.8
20260831210553 80 136 1.0 3.0 0.00 0.00 0.00 72 1013.7
20260831210047 80 131 0.0 5.0 0.00 0.00 0.00 71 1013.7
20260831205548 80 128 2.0 5.0 0.00 0.00 0.00 71 1013.6
20260831205109 80 123 1.0 2.0 0.00 0.00 0.00 71 1013.5
20260831204628 80 123 0.0 2.0 0.00 0.00 0.00 70 1013.7
20260831204100 80 123 0.0 2.0 0.00 0.00 0.00 70 1013.6
20260831203600 80 123 0.0 2.0 0.00 0.00 0.00 70 1013.5
20260831203101 80 123 0.0 3.0 0.00 0.00 0.00 70 1013.6
20260831202622 80 123 0.0 4.0 0.00 0.00 0.00 70 1013.5
20260831202055 80 121 2.0 5.0 0.00 0.00 0.00 70 1013.4
20260831201546 80 135 3.0 7.0 0.00 0.00 0.00 70 1013.3
20260831201106 81 133 2.0 7.0 0.00 0.00 0.00 69 1013.2
20260831200546 81 151 3.0 9.0 0.00 0.00 0.00 69 1013.2
20260831200106 81 161 4.0 9.0 0.00 0.00 0.00 69 1013.2
20260831195600 81 178 3.0 8.0 0.00 0.00 0.00 69 1013.2
20260831195053 81 196 3.0 7.0 0.00 0.00 0.00 69 1013.2
20260831194554 81 198 4.0 7.0 0.00 0.00 0.00 69 1013.1
20260831194048 81 136 2.0 6.0 0.00 0.00 0.00 69 1013.1
20260831193550 81 139 3.0 6.0 0.00 0.00 0.00 69 1013.1
20260831193043 81 159 2.0 7.0 0.00 0.00 0.00 69 1013.1
20260831192543 82 164 3.0 9.0 0.00 0.00 0.00 68 1013.0
20260831192056 82 189 4.0 9.0 0.00 0.00 0.00 68 1013.0
20260831191557 82 155 3.0 8.0 0.00 0.00 0.00 68 1012.9
20260831191051 82 184 2.0 8.0 0.00 0.00 0.00 68 1012.9
20260831190552 82 152 3.0 7.0 0.00 0.00 0.00 67 1012.9
20260831190113 83 143 3.0 7.0 0.00 0.00 0.00 67 1012.8
20260831185545 83 143 3.0 8.0 0.00 0.00 0.00 66 1012.7
20260831185106 83 146 1.0 9.0 0.00 0.00 0.00 66 1012.7
20260831184600 83 186 4.0 9.0 0.00 0.00 0.00 65 1012.7
20260831184122 84 141 3.0 8.0 0.00 0.00 0.00 64 1012.6
20260831183603 84 149 2.0 8.0 0.00 0.00 0.00 64 1012.6
20260831183057 85 169 2.0 8.0 0.00 0.00 0.00 63 1012.5
20260831182551 85 131 3.0 7.0 0.00 0.00 0.00 61 1012.5
20260831182051 86 182 2.0 9.0 0.00 0.00 0.00 59 1012.4
20260831181546 86 138 3.0 9.0 0.00 0.00 0.00 56 1012.3
20260831181046 87 177 0.0 3.0 0.00 0.00 0.00 54 1012.3
20260831180601 87 180 1.0 4.0 0.00 0.00 0.00 53 1012.2
20260831180054 87 182 2.0 4.0 0.00 0.00 0.00 53 1012.2
20260831175555 88 181 2.0 5.0 0.00 0.00 0.00 52 1012.2
20260831175048 88 188 2.0 5.0 0.00 0.00 0.00 51 1012.2
20260831174549 88 183 2.0 4.0 0.00 0.00 0.00 51 1012.1
20260831174102 89 176 2.0 4.0 0.00 0.00 0.00 51 1012.1
20260831173624 89 180 1.0 3.0 0.00 0.00 0.00 51 1012.2
20260831173103 89 196 0.0 2.0 0.00 0.00 0.00 50 1012.2
20260831172555 90 198 1.0 4.0 0.00 0.00 0.00 50 1012.2
20260831172056 90 198 3.0 4.0 0.00 0.00 0.00 49 1012.2
20260831171549 90 181 2.0 4.0 0.00 0.00 0.00 49 1012.3
20260831171051 90 194 2.0 4.0 0.00 0.00 0.00 49 1012.3
20260831170544 90 200 2.0 4.0 0.00 0.00 0.00 49 1012.3
20260831170045 91 191 1.0 4.0 0.00 0.00 0.00 49 1012.4
20260831165605 91 186 3.0 6.0 0.00 0.00 0.00 49 1012.4
20260831165059 91 205 3.0 6.0 0.00 0.00 0.00 48 1012.4
20260831164559 91 194 4.0 6.0 0.00 0.00 0.00 48 1012.5
20260831164053 91 207 2.0 6.0 0.00 0.00 0.00 48 1012.6
20260831163553 91 182 3.0 6.0 0.00 0.00 0.00 48 1012.6
20260831163047 91 184 2.0 7.0 0.00 0.00 0.00 48 1012.5
20260831162608 91 209 5.0 7.0 0.00 0.00 0.00 47 1012.6
20260831162102 91 186 3.0 6.0 0.00 0.00 0.00 48 1012.7
20260831161602 91 233 3.0 8.0 0.00 0.00 0.00 48 1012.7
20260831161122 91 205 5.0 8.0 0.00 0.00 0.00 47 1012.7
20260831160554 92 248 4.0 8.0 0.00 0.00 0.00 47 1012.7
20260831160055 92 239 4.0 8.0 0.00 0.00 0.00 47 1012.7
20260831155548 92 209 4.0 8.0 0.00 0.00 0.00 46 1012.7
20260831155048 92 200 4.0 8.0 0.00 0.00 0.00 47 1012.7
20260831154609 92 244 3.0 10.0 0.00 0.00 0.00 47 1012.8
20260831154108 92 215 6.0 10.0 0.00 0.00 0.00 46 1012.8
20260831153618 92 211 5.0 11.0 0.00 0.00 0.00 46 1012.8
20260831153057 92 240 5.0 11.0 0.00 0.00 0.00 46 1012.8
20260831152552 92 243 7.0 10.0 0.00 0.00 0.00 46 1012.8
20260831152052 92 252 2.0 10.0 0.00 0.00 0.00 46 1012.9
20260831151546 92 233 6.0 11.0 0.00 0.00 0.00 45 1012.9
20260831151047 92 207 5.0 11.0 0.00 0.00 0.00 45 1012.9
20260831150607 93 237 6.0 11.0 0.00 0.00 0.00 45 1012.9
20260831150101 93 233 5.0 10.0 0.00 0.00 0.00 45 1012.9
20260831145601 93 201 4.0 9.0 0.00 0.00 0.00 45 1013.0
20260831145055 93 238 4.0 7.0 0.00 0.00 0.00 45 1013.0
20260831144556 93 172 3.0 6.0 0.00 0.00 0.00 46 1013.0
20260831144048 92 226 3.0 11.0 0.00 0.00 0.00 48 1013.0
20260831143549 92 238 4.0 11.0 0.00 0.00 0.00 46 1013.0
20260831143106 92 241 6.0 11.0 0.00 0.00 0.00 46 1013.1
20260831142601 92 216 3.0 8.0 0.00 0.00 0.00 46 1013.0
20260831142102 92 198 3.0 10.0 0.00 0.00 0.00 46 1013.0
20260831141546 92 243 7.0 10.0 0.00 0.00 0.00 45 1013.1
20260831141107 92 184 4.0 13.0 0.00 0.00 0.00 46 1013.1
20260831140601 92 235 8.0 13.0 0.00 0.00 0.00 45 1013.1
20260831140123 92 221 6.0 10.0 0.00 0.00 0.00 45 1013.1
20260831135622 92 188 4.0 12.0 0.00 0.00 0.00 46 1013.2
20260831135122 92 217 6.0 12.0 0.00 0.00 0.00 46 1013.2
20260831134553 92 214 6.0 12.0 0.00 0.00 0.00 46 1013.3
20260831134054 92 229 5.0 11.0 0.00 0.00 0.00 45 1013.3
20260831133544 92 259 6.0 11.0 0.00 0.00 0.00 44 1013.3
20260831133046 92 240 6.0 10.0 0.00 0.00 0.00 43 1013.3
20260831132544 92 196 5.0 10.0 0.00 0.00 0.00 46 1013.3
20260831132058 92 237 6.0 10.0 0.00 0.00 0.00 46 1013.4
20260831131559 92 215 6.0 10.0 0.00 0.00 0.00 45 1013.4
20260831131053 92 241 5.0 8.0 0.00 0.00 0.00 45 1013.4
20260831130554 92 227 5.0 9.0 0.00 0.00 0.00 46 1013.5
20260831130048 92 224 4.0 10.0 0.00 0.00 0.00 46 1013.6
20260831125549 92 213 6.0 11.0 0.00 0.00 0.00 46 1013.5
20260831125102 92 248 4.0 10.0 0.00 0.00 0.00 47 1013.7
20260831124619 93 215 4.0 10.0 0.00 0.00 0.00 47 1013.8
20260831124059 92 168 4.0 10.0 0.00 0.00 0.00 47 1013.8
20260831123552 92 188 4.0 10.0 0.00 0.00 0.00 47 1013.8
20260831123046 91 215 3.0 9.0 0.00 0.00 0.00 47 1013.9
20260831122547 91 200 6.0 11.0 0.00 0.00 0.00 47 1013.9
20260831122106 91 236 6.0 11.0 0.00 0.00 0.00 47 1014.0
20260831121621 92 227 5.0 11.0 0.00 0.00 0.00 47 1014.0
20260831121100 91 240 5.0 10.0 0.00 0.00 0.00 47 1014.0
20260831120554 91 210 6.0 10.0 0.00 0.00 0.00 46 1014.0
20260831120055 91 235 5.0 10.0 0.00 0.00 0.00 46 1014.1
20260831115549 91 254 4.0 10.0 0.00 0.00 0.00 45 1014.1
20260831115050 92 214 4.0 7.0 0.00 0.00 0.00 46 1014.0
20260831114543 91 151 3.0 7.0 0.00 0.00 0.00 46 1014.1
20260831114044 91 242 2.0 8.0 0.00 0.00 0.00 47 1014.2
20260831113558 91 229 4.0 9.0 0.00 0.00 0.00 47 1014.2
20260831113059 91 261 4.0 8.0 0.00 0.00 0.00 48 1014.3
20260831112620 91 279 3.0 8.0 0.00 0.00 0.00 46 1014.3
20260831112113 91 245 5.0 9.0 0.00 0.00 0.00 47 1014.4
20260831111613 90 207 2.0 11.0 0.00 0.00 0.00 46 1014.3
20260831111053 90 240 6.0 11.0 0.00 0.00 0.00 46 1014.4
20260831110546 91 246 6.0 9.0 0.00 0.00 0.00 47 1014.3
20260831110047 90 205 2.0 8.0 0.00 0.00 0.00 47 1014.3
20260831105600 90 196 3.0 8.0 0.00 0.00 0.00 47 1014.4
20260831105101 90 205 5.0 10.0 0.00 0.00 0.00 47 1014.4
20260831104601 90 255 6.0 9.0 0.00 0.00 0.00 47 1014.4
20260831104053 90 253 5.0 9.0 0.00 0.00 0.00 47 1014.4